Time,TemperatureF,DewpointF,PressureIn,WindDirection,WindDirectionDegrees,WindSpeedMPH,WindSpeedGustMPH,Humidity,HourlyPrecipIn,Conditions,Clouds,dailyrainin,SoftwareType,DateUTC
2013-02-27 00:11:00,34.7,32.0,29.76,NNE,23,1.0,-999.0,91,-99.99,,,0.00,weatherlink.com 1.10,2013-02-27 05:11:00,
2013-02-27 00:26:00,34.7,33.0,29.74,ENE,63,1.0,-999.0,92,-99.99,,,0.00,weatherlink.com 1.10,2013-02-27 05:26:00,
2013-02-27 00:41:00,34.8,33.0,29.74,NNE,29,0.0,-999.0,92,-99.99,,,0.00,weatherlink.com 1.10,2013-02-27 05:41:00,
2013-02-27 00:56:00,34.9,33.0,29.74,SSW,206,3.0,-999.0,92,-99.99,,,0.00,weatherlink.com 1.10,2013-02-27 05:56:00,
2013-02-27 01:11:00,35.1,33.0,29.72,ESE,103,0.0,-999.0,92,-99.99,,,0.00,weatherlink.com 1.10,2013-02-27 06:11:00,
2013-02-27 01:26:00,35.3,33.0,29.71,North,360,0.0,-999.0,92,-99.99,,,0.00,weatherlink.com 1.10,2013-02-27 06:26:00,
2013-02-27 01:41:00,35.4,33.0,29.70,NE,51,0.0,-999.0,92,-99.99,,,0.00,weatherlink.com 1.10,2013-02-27 06:41:00,
2013-02-27 01:56:00,35.5,33.0,29.69,NNE,22,0.0,-999.0,92,-99.99,,,0.00,weatherlink.com 1.10,2013-02-27 06:56:00,
2013-02-27 02:11:00,35.6,34.0,29.67,North,9,1.0,-999.0,92,-99.99,,,0.00,weatherlink.com 1.10,2013-02-27 07:11:00,
2013-02-27 02:26:00,35.8,34.0,29.66,NE,39,1.0,-999.0,92,-99.99,,,0.00,weatherlink.com 1.10,2013-02-27 07:26:00,
2013-02-27 02:41:00,36.1,34.0,29.64,NW,324,0.0,-999.0,93,-99.99,,,0.00,weatherlink.com 1.10,2013-02-27 07:41:00,
2013-02-27 02:56:00,36.5,35.0,29.62,North,5,2.0,-999.0,93,-99.99,,,0.00,weatherlink.com 1.10,2013-02-27 07:56:00,
2013-02-27 03:11:00,36.8,35.0,29.61,NNE,19,4.0,-999.0,93,-99.99,,,0.00,weatherlink.com 1.10,2013-02-27 08:11:00,
2013-02-27 03:26:00,37.1,35.0,29.61,NE,52,0.0,-999.0,93,-99.99,,,0.00,weatherlink.com 1.10,2013-02-27 08:26:00,
2013-02-27 03:42:00,37.3,36.0,29.60,NE,38,0.0,-999.0,93,-99.99,,,0.00,weatherlink.com 1.10,2013-02-27 08:42:00,
2013-02-27 03:57:00,37.5,36.0,29.59,NW,308,0.0,-999.0,93,-99.99,,,0.00,weatherlink.com 1.10,2013-02-27 08:57:00,
2013-02-27 04:12:00,37.7,36.0,29.58,ENE,77,0.0,-999.0,93,-99.99,,,0.00,weatherlink.com 1.10,2013-02-27 09:12:00,
2013-02-27 04:27:00,37.9,36.0,29.59,North,5,0.0,-999.0,93,-99.99,,,0.00,weatherlink.com 1.10,2013-02-27 09:27:00,
2013-02-27 04:42:00,38.1,36.0,29.58,NNE,33,3.0,-999.0,93,-99.99,,,0.00,weatherlink.com 1.10,2013-02-27 09:42:00,
2013-02-27 04:57:00,38.2,36.0,29.57,NNW,332,0.0,-999.0,93,-99.99,,,0.00,weatherlink.com 1.10,2013-02-27 09:57:00,
2013-02-27 05:12:00,38.4,37.0,29.58,WSW,242,0.0,-999.0,93,-99.99,,,0.00,weatherlink.com 1.10,2013-02-27 10:12:00,
2013-02-27 05:27:00,38.6,37.0,29.57,NNE,32,0.0,-999.0,93,-99.99,,,0.00,weatherlink.com 1.10,2013-02-27 10:27:00,
2013-02-27 05:42:00,38.6,37.0,29.57,SE,146,0.0,-999.0,93,-99.99,,,0.00,weatherlink.com 1.10,2013-02-27 10:42:00,
2013-02-27 05:57:00,38.7,37.0,29.56,ENE,65,0.0,-999.0,92,-99.99,,,0.00,weatherlink.com 1.10,2013-02-27 10:57:00,
2013-02-27 06:12:00,38.8,37.0,29.55,NNE,20,0.0,-999.0,92,-99.99,,,0.00,weatherlink.com 1.10,2013-02-27 11:12:00,
2013-02-27 06:27:00,38.8,37.0,29.55,NNE,24,0.0,-999.0,92,-99.99,,,0.00,weatherlink.com 1.10,2013-02-27 11:27:00,
2013-02-27 06:42:00,38.8,37.0,29.55,NNE,24,0.0,-999.0,92,-99.99,,,0.00,weatherlink.com 1.10,2013-02-27 11:42:00,
2013-02-27 06:57:00,38.7,37.0,29.55,NNE,24,0.0,-999.0,92,-99.99,,,0.00,weatherlink.com 1.10,2013-02-27 11:57:00,
2013-02-27 07:12:00,38.7,37.0,29.54,NNE,24,0.0,-999.0,92,-99.99,,,0.00,weatherlink.com 1.10,2013-02-27 12:12:00,
2013-02-27 07:27:00,38.7,37.0,29.55,NNE,24,0.0,-999.0,92,-99.99,,,0.00,weatherlink.com 1.10,2013-02-27 12:27:00,
2013-02-27 07:42:00,38.7,37.0,29.54,NNW,335,0.0,-999.0,93,-99.99,,,0.00,weatherlink.com 1.10,2013-02-27 12:42:00,
2013-02-27 07:57:00,38.7,37.0,29.55,NNW,329,0.0,-999.0,93,-99.99,,,0.00,weatherlink.com 1.10,2013-02-27 12:57:00,
2013-02-27 08:12:00,38.8,37.0,29.55,NW,315,1.0,-999.0,93,-99.99,,,0.00,weatherlink.com 1.10,2013-02-27 13:12:00,
2013-02-27 08:27:00,38.8,37.0,29.56,West,267,2.0,-999.0,93,-99.99,,,0.00,weatherlink.com 1.10,2013-02-27 13:27:00,
2013-02-27 08:42:00,38.7,37.0,29.56,West,261,1.0,-999.0,93,-99.99,,,0.00,weatherlink.com 1.10,2013-02-27 13:42:00,
2013-02-27 08:57:00,38.6,37.0,29.56,WSW,244,0.0,-999.0,93,-99.99,,,0.00,weatherlink.com 1.10,2013-02-27 13:57:00,
2013-02-27 09:12:00,38.6,37.0,29.57,WSW,244,0.0,-999.0,93,-99.99,,,0.00,weatherlink.com 1.10,2013-02-27 14:12:00,
2013-02-27 09:27:00,38.5,37.0,29.57,WNW,284,2.0,-999.0,93,-99.99,,,0.00,weatherlink.com 1.10,2013-02-27 14:27:00,
2013-02-27 09:42:00,38.1,36.0,29.58,WNW,285,3.0,-999.0,93,-99.99,,,0.00,weatherlink.com 1.10,2013-02-27 14:42:00,
2013-02-27 09:57:00,37.9,36.0,29.58,West,277,2.0,-999.0,93,-99.99,,,0.00,weatherlink.com 1.10,2013-02-27 14:57:00,
2013-02-27 10:12:00,38.0,36.0,29.59,SW,236,0.0,-999.0,93,-99.99,,,0.00,weatherlink.com 1.10,2013-02-27 15:12:00,
2013-02-27 10:27:00,38.0,37.0,29.59,SW,235,0.0,-999.0,94,-99.99,,,0.00,weatherlink.com 1.10,2013-02-27 15:27:00,
2013-02-27 10:42:00,38.0,37.0,29.60,SW,230,2.0,-999.0,94,-99.99,,,0.00,weatherlink.com 1.10,2013-02-27 15:42:00,
2013-02-27 10:57:00,38.0,37.0,29.61,SW,227,3.0,-999.0,94,-99.99,,,0.00,weatherlink.com 1.10,2013-02-27 15:57:00,
2013-02-27 11:12:00,37.9,36.0,29.61,SSW,205,4.0,-999.0,94,-99.99,,,0.00,weatherlink.com 1.10,2013-02-27 16:12:00,
2013-02-27 11:27:00,37.8,36.0,29.61,SW,226,3.0,-999.0,94,-99.99,,,0.00,weatherlink.com 1.10,2013-02-27 16:27:00,
2013-02-27 11:42:00,37.4,36.0,29.61,SSW,211,3.0,-999.0,93,-99.99,,,0.00,weatherlink.com 1.10,2013-02-27 16:42:00,
2013-02-27 11:59:00,37.7,36.0,29.60,West,259,4.0,-999.0,93,-99.99,,,0.00,weatherlink.com 1.10,2013-02-27 16:59:00,
2013-02-27 12:14:00,37.7,36.0,29.60,West,266,3.0,-999.0,93,-99.99,,,0.00,weatherlink.com 1.10,2013-02-27 17:14:00,
2013-02-27 12:29:00,38.3,37.0,29.59,SSW,213,1.0,-999.0,93,-99.99,,,0.00,weatherlink.com 1.10,2013-02-27 17:29:00,
2013-02-27 12:43:00,39.3,38.0,29.58,WSW,242,1.0,-999.0,93,-99.99,,,0.00,weatherlink.com 1.10,2013-02-27 17:43:00,
2013-02-27 12:58:00,39.7,38.0,29.58,West,274,3.0,-999.0,92,-99.99,,,0.00,weatherlink.com 1.10,2013-02-27 17:58:00,
2013-02-27 13:13:00,39.5,37.0,29.58,SSW,212,2.0,-999.0,92,-99.99,,,0.00,weatherlink.com 1.10,2013-02-27 18:13:00,
2013-02-27 13:31:00,39.5,37.0,29.59,SSW,209,4.0,-999.0,92,-99.99,,,0.00,weatherlink.com 1.10,2013-02-27 18:31:00,
2013-02-27 13:43:00,39.7,37.0,29.59,SSW,204,1.0,-999.0,91,-99.99,,,0.00,weatherlink.com 1.10,2013-02-27 18:43:00,
2013-02-27 13:59:00,39.5,37.0,29.59,SW,223,2.0,-999.0,91,-99.99,,,0.00,weatherlink.com 1.10,2013-02-27 18:59:00,
2013-02-27 14:14:00,39.5,37.0,29.59,SW,235,2.0,-999.0,91,-99.99,,,0.00,weatherlink.com 1.10,2013-02-27 19:14:00,
2013-02-27 14:29:00,39.7,37.0,29.59,SW,235,0.0,-999.0,91,-99.99,,,0.00,weatherlink.com 1.10,2013-02-27 19:29:00,
2013-02-27 14:45:00,40.0,38.0,29.60,SW,234,2.0,-999.0,91,-99.99,,,0.00,weatherlink.com 1.10,2013-02-27 19:45:00,
2013-02-27 15:00:00,40.2,38.0,29.60,SW,234,0.0,-999.0,91,-99.99,,,0.00,weatherlink.com 1.10,2013-02-27 20:00:00,
2013-02-27 15:15:00,40.5,38.0,29.60,SW,234,1.0,-999.0,91,-99.99,,,0.00,weatherlink.com 1.10,2013-02-27 20:15:00,
2013-02-27 15:30:00,40.9,39.0,29.61,SW,234,0.0,-999.0,91,-99.99,,,0.00,weatherlink.com 1.10,2013-02-27 20:30:00,
2013-02-27 15:46:00,41.1,38.0,29.61,West,273,0.0,-999.0,90,-99.99,,,0.00,weatherlink.com 1.10,2013-02-27 20:46:00,
2013-02-27 16:00:00,40.9,38.0,29.61,SSW,206,4.0,-999.0,90,-99.99,,,0.00,weatherlink.com 1.10,2013-02-27 21:00:00,
2013-02-27 16:15:00,41.0,38.0,29.61,SSW,208,0.0,-999.0,90,-99.99,,,0.00,weatherlink.com 1.10,2013-02-27 21:15:00,
2013-02-27 16:30:00,41.0,38.0,29.61,SSW,208,0.0,-999.0,90,-99.99,,,0.00,weatherlink.com 1.10,2013-02-27 21:30:00,
2013-02-27 16:46:00,41.1,38.0,29.61,SSW,208,0.0,-999.0,89,-99.99,,,0.00,weatherlink.com 1.10,2013-02-27 21:46:00,
2013-02-27 17:01:00,41.1,38.0,29.61,SSW,208,0.0,-999.0,89,-99.99,,,0.00,weatherlink.com 1.10,2013-02-27 22:01:00,
2013-02-27 17:17:00,40.9,38.0,29.62,SSW,208,0.0,-999.0,89,-99.99,,,0.00,weatherlink.com 1.10,2013-02-27 22:17:00,
2013-02-27 17:30:00,40.9,38.0,29.62,SSW,208,0.0,-999.0,89,-99.99,,,0.00,weatherlink.com 1.10,2013-02-27 22:30:00,
2013-02-27 17:45:00,40.7,38.0,29.63,SSW,208,0.0,-999.0,89,-99.99,,,0.00,weatherlink.com 1.10,2013-02-27 22:45:00,
2013-02-27 18:00:00,40.4,38.0,29.63,SSW,208,0.0,-999.0,89,-99.99,,,0.00,weatherlink.com 1.10,2013-02-27 23:00:00,
2013-02-27 18:15:00,40.1,37.0,29.63,SSW,208,0.0,-999.0,89,-99.99,,,0.00,weatherlink.com 1.10,2013-02-27 23:15:00,
2013-02-27 18:30:00,39.9,37.0,29.64,SSW,208,0.0,-999.0,89,-99.99,,,0.00,weatherlink.com 1.10,2013-02-27 23:30:00,
2013-02-27 18:45:00,39.7,37.0,29.64,SSW,208,0.0,-999.0,90,-99.99,,,0.00,weatherlink.com 1.10,2013-02-27 23:45:00,
2013-02-27 19:00:00,39.5,37.0,29.64,SSW,208,0.0,-999.0,90,-99.99,,,0.00,weatherlink.com 1.10,2013-02-28 00:00:00,
2013-02-27 19:15:00,39.3,37.0,29.65,SSW,208,0.0,-999.0,90,-99.99,,,0.00,weatherlink.com 1.10,2013-02-28 00:15:00,
2013-02-27 19:30:00,39.0,36.0,29.64,SSW,208,0.0,-999.0,90,-99.99,,,0.00,weatherlink.com 1.10,2013-02-28 00:30:00,
2013-02-27 19:45:00,38.8,36.0,29.64,SSW,208,0.0,-999.0,90,-99.99,,,0.00,weatherlink.com 1.10,2013-02-28 00:45:00,
2013-02-27 20:00:00,38.6,36.0,29.64,SSW,208,0.0,-999.0,90,-99.99,,,0.00,weatherlink.com 1.10,2013-02-28 01:00:00,
2013-02-27 20:15:00,38.4,36.0,29.64,SSW,208,0.0,-999.0,90,-99.99,,,0.00,weatherlink.com 1.10,2013-02-28 01:15:00,
2013-02-27 20:30:00,38.3,36.0,29.64,SSW,208,0.0,-999.0,91,-99.99,,,0.00,weatherlink.com 1.10,2013-02-28 01:30:00,
2013-02-27 20:45:00,38.0,35.0,29.64,SSW,208,0.0,-999.0,90,-99.99,,,0.00,weatherlink.com 1.10,2013-02-28 01:45:00,
2013-02-27 21:00:00,37.8,36.0,29.64,SSW,208,0.0,-999.0,91,-99.99,,,0.00,weatherlink.com 1.10,2013-02-28 02:00:00,
2013-02-27 21:15:00,37.7,35.0,29.65,SSW,208,0.0,-999.0,91,-99.99,,,0.00,weatherlink.com 1.10,2013-02-28 02:15:00,
2013-02-27 21:30:00,37.5,35.0,29.64,SSW,208,0.0,-999.0,91,-99.99,,,0.00,weatherlink.com 1.10,2013-02-28 02:30:00,
2013-02-27 21:45:00,37.3,35.0,29.64,SSW,208,0.0,-999.0,91,-99.99,,,0.00,weatherlink.com 1.10,2013-02-28 02:45:00,
2013-02-27 22:00:00,37.2,35.0,29.64,SSW,208,0.0,-999.0,91,-99.99,,,0.00,weatherlink.com 1.10,2013-02-28 03:00:00,
2013-02-27 22:15:00,37.0,35.0,29.64,SSW,208,0.0,-999.0,91,-99.99,,,0.00,weatherlink.com 1.10,2013-02-28 03:15:00,
2013-02-27 22:30:00,36.9,35.0,29.64,SSW,208,0.0,-999.0,91,-99.99,,,0.00,weatherlink.com 1.10,2013-02-28 03:30:00,
2013-02-27 22:45:00,36.8,35.0,29.63,SSW,208,0.0,-999.0,92,-99.99,,,0.00,weatherlink.com 1.10,2013-02-28 03:45:00,
2013-02-27 23:01:00,36.6,35.0,29.63,SSW,208,0.0,-999.0,92,-99.99,,,0.00,weatherlink.com 1.10,2013-02-28 04:01:00,
2013-02-27 23:20:00,36.3,34.0,29.62,SSW,208,0.0,-999.0,92,-99.99,,,0.00,weatherlink.com 1.10,2013-02-28 04:20:00,
2013-02-27 23:31:00,36.1,34.0,29.62,SSW,208,0.0,-999.0,92,-99.99,,,0.00,weatherlink.com 1.10,2013-02-28 04:31:00,
2013-02-27 23:46:00,35.9,34.0,29.60,SSW,208,0.0,-999.0,92,-99.99,,,0.00,weatherlink.com 1.10,2013-02-28 04:46:00,